Regional Weather Roundup
Issued by NWS

Home | Current Version | Previous Version | Graphics & Text | Print | Product List | Glossary Off
Versions: 1 2 3 4 5 6 7 8 9 10 11 12 13 14 15 16 17 18 19 20 21 22 23 24 25 26 27 28 29 30 31 32 33 34 35 36 37 38 39 40 41 42 43 44 45 46 47 48 49 50

000
ASUS43 KLSX 161959
RWRMO

WEATHER SUMMARY FOR MISSOURI
NATIONAL WEATHER SERVICE SPRINGFIELD MO
300 PM CDT TUE SEP 16 2014

NOTE: "FAIR" INDICATES FEW OR NO CLOUDS BELOW 12,000 FEET WITH NO
       SIGNIFICANT WEATHER AND/OR OBSTRUCTIONS TO VISIBILITY.
       CURRENT SKY AND/OR WEATHER CONDITIONS ARE NOT AVAILABLE FOR
       CHILLICOTHE AND FARMINGTON.

MOZ001>031-035>038-043-044-053-054-162100-
...NORTHERN AND WESTERN MISSOURI...

CITY           SKY/WX    TMP DP  RH WIND       PRES   REMARKS
KANSAS CTY INT SUNNY     68  50  52 SE3       30.13F
KANSAS C DTWN  SUNNY     71  50  47 CALM      30.12F
LEE`S SUMMIT   SUNNY     69  51  52 VRB3      30.13F
ST JOSEPH      SUNNY     69  52  54 SE7       30.13F
KIRKSVILLE     SUNNY     66  47  50 VRB3      30.15F

$$
MOZ066>068-077>081-088>096-101>105-162100-
...SOUTHWEST MISSOURI...

CITY           SKY/WX    TMP DP  RH WIND       PRES   REMARKS
SPRINGFIELD    PTSUNNY   74  59  59 E6        30.12F
JOPLIN         PTSUNNY   72  63  73 CALM      30.12F

$$
MOZ032>034-039>042-045>050-055>058-069>072-162100-
...CENTRAL MISSOURI...

CITY           SKY/WX    TMP DP  RH WIND       PRES   REMARKS
COLUMBIA       SUNNY     68  52  56 CALM      30.14F
JEFFERSON CITY SUNNY     70  53  54 SW6       30.13F
ROLLA          PTSUNNY   63  56  78 S5        30.14F
SEDALIA        MOSUNNY   70  55  59 N5        30.14F
OSAGE BEACH    PTSUNNY   68  57  68 S7        30.14F

$$
MOZ051-052-059>065-162100-
...EAST CENTRAL MISSOURI...

CITY           SKY/WX    TMP DP  RH WIND       PRES   REMARKS
ST LOUIS INTL  PTSUNNY   66  53  63 CALM      30.15F
SPIRIT OF STL  PTSUNNY   68  55  63 N5        30.14F
ST CHARLES     CLOUDY    64  52  64 N3        30.15F

$$
MOZ072>076-082>087-097>100-106>115-162100-
...SOUTH CENTRAL AND SOUTHEAST MISSOURI...

CITY           SKY/WX    TMP DP  RH WIND       PRES   REMARKS
CAPE GIRARDEAU MOSUNNY   68  54  60 NE13      30.13F
FARMINGTON     CLOUDY    68  55  64 NE7       30.16F
POPLAR BLUFF   CLOUDY    70  54  56 E7        30.11F
WEST PLAINS    CLOUDY    68  57  68 VRB5      30.14F

$$



USA.gov is the U.S. government's official web portal to all federal, state and local government web resources and services.